COSMOS 928

Satellite information

Favourite Embed

Satellite Type and Status

PAYLOADIN ORBIT

Key statistics

Satellite COSMOS 928 at a glance.

Uptime

17527

Days in orbit

Revolutions

≈ 13.8

Per day

Orbit

LEO

Low Earth Orbit

Inclination

83.0

Latest

Satellite identification and parameters

Extended collection of information and parameters for COSMOS 928.

Object identification

Identified? True

Debris? False

Object name: COSMOS 928

International designator: 1977-064A

Object number (NORAD): 10141

Object ID (CCSDS): 10141

Country: COMMONWEALTH OF INDEPENDENT STATES (CIS)

Current information (Y/N): Y

RCS size: LARGE

Orbital parameters

Period: 104.585 minutes

Inclination: 82.9657 deg

SMA: 7353.161 km

Apoapsis: 1001.895 km

Periapsis: 948.156 km

RAAN: 32.9684 deg

Eccentricy: 0.0036542

Argument of periapsis: 248.5873 deg

Mean anomaly: 111.1384 deg

Mean motion: 13.76866055 rev/day

Mean motion (dot): 0.00000073 rev/day2

B* drag term: 0.000058469 1/REarth

Two-line elements (TLE)

Creation date: July 8, 2025, 2:27 a.m.

Reference frame: TEME

Reference center: EARTH

Epoch: July 7, 2025, 10:09 p.m. UTC

TLE line 0: 0 COSMOS 928

TLE line 1: 1 10141U 77064A 25188.92325030 .00000073 00000-0 58469-4 0 9995

TLE line 2: 2 10141 82.9657 32.9684 0036542 248.5873 111.1384 13.76866055410129

Live tracking on map

Real-time ground track for satellite COSMOS 928.

In-orbit conjunctions

A list of the most updated potential collisions computed for object COSMOS 928.

Target Orbit TCA Probability of collision Miss distance Type
SL-8 R/B LEO 2025-01-14 19:44:38 0.000600538 160.0 (m) ROCKET BODY
FENGYUN 1C DEB SSO 2024-11-29 16:18:17 0.000102295 320.0 (m) DEBRIS
THOR ABLESTAR DEB LEO 2024-11-29 14:52:28 0.002608421 149.0 (m) DEBRIS

Associated space launch

Navigation satellite providing location information for the Tsiklon-B navigation system

COSMOS 928 was lifted into orbit during the mission ‘Kosmos-3M | Parus 9’, on board a Kosmos-3M space rocket.

The launch took place on July 13, 1977, 5:02 a.m. from 132/1 (132L).

For more information about the launch, click the button.

Launch to space Kosmos-3M | Parus 9
Kosmos-3M | Parus 9

Agency: N/A

Status: Launch Successful

Launch date: July 13, 1977, 5:02 a.m. UTC

Rocket: Kosmos-3M

Launch pad: 132/1 (132L)

Location: Plesetsk Cosmodrome, Russian Federation

...

Latest news about this satellite

There are no fresh news available about this satellite. Check back as we update our databases every day.


Newsletter sign-up

Weekly statistics, charts and insights to help you stay on top of the space industry.